Погода Чапаево

Погода Чапаево : погода сейчас, прогноз погоды и архив. Всё, что Вы хотите узнать о погоде Чапаево!

Поиск расширенной информации на нашем сайте:

Другие новости

Новости СМИ2

Главная страница сайта

Новости сайта

03.07.2017

Напоминаем, что на нашем специализированном сайте Метеоцентр.Азия вы можете получить высокодетализированные автоматические прогнозы погоды по пунктам России, СНГ и мира в авиационном формате (включающие направление и скорость ветра, видимость, явления погоды, количество и форму облачности, нижнюю и верхнюю границу облачности).

Рекомендуем: Капсулы яблочный уксус - по низким ценам!

Погода Чапаево - сегодня

Время (UTC), дата Ветер
(°,м/с) 
Видим.   Явления Облачность Т
(°С)
Тd
(°С)
f(%) Тe
(°С)
Pmin
(гПа)
dP
(гПа)
Po
(мм)
O2
(г/м3)
Тmin Tmax R s Состояние
почвы
06 15.08.17 140 (ЮВ) 20000 м    ясно 
+23.2 +10.9 46 +25  1018.9  0.9  763  281  +15         
09 15.08.17 140 (ЮВ) 20000 м    1/1 600 м 
[Cu hum]
+27.2 +9.9 34 +28  1018.4  -0.5  762  278           
12 15.08.17 110 (В) 20000 м    1/1 600 м 
[Cu hum]
+28.3 +8.5 29 +28  1017.7  -0.6  762  277           
15 15.08.17 тихо ()   20000 м    ясно 
+28 +10.2 33 +29  1017.9  0.2  762  277    +28.6       
18 15.08.17 тихо ()   н/о    ясно 
+20.8 +9.1 47 +21  1018.8  0.8  763  284    +28.6       
21 15.08.17 тихо ()   н/о    ясно 
+18.7 +9.1 54 +19  1019  0.2  763  286           
00 16.08.17 тихо ()   н/о    ясно 
+16.6 +9.5 63 +17  1019.1  0.1  763  288           
03 16.08.17 090 (В) 20000 м    1/0 верхняя 
[Ci fib]
+16 +10.9 72 +19  1019.9  0.8  764  289           
06 16.08.17 070 (В) 20000 м    6/0 верхняя 
[Ci fib]
+24.7 +8.1 35 +25  1020.5  0.6  764  281  +16         
09 16.08.17 110 (В) 20000 м    8/3 600 м верхняя 
[Cu hum|Cs]
+31.7 +2.7 16 +32  1020  -0.4  764  275           
12 16.08.17 090 (В) 20000 м    8/3 600 м верхняя 
[Cu hum|Cs]
+32.7 -0.6 12 +33  1019.7  -0.3  764  275           
15 16.08.17 тихо ()   20000 м    8/0 средняя, верхняя 
[Ac trans|Cs]
+31.1 +7.6 23 +31  1019.8  0.1  764  275    +32.8       
18 16.08.17 050 (СВ) н/о    4/0 верхняя 
[Ci fib]
+25.7 +16 55 +36  1020.3  0.4  764  278    +32.8       
21 16.08.17 050 (СВ) н/о    4/0 средняя 
[Ac lent]
+21.9 +7.6 40 +22  1020.6  0.3  764  284           
00 17.08.17 090 (В) н/о    ясно 
+19.4 +6.5 43 +20  1021  0.4  764  287           
03 17.08.17 070 (В) 20000 м    8/3 600 м верхняя 
[Cu Sc|Cs]
+19.2 +7.1 45 +20  1021.2  0.2  751  282           
06 17.08.17 070 (В) 20000 м    8/3 600 м верхняя 
[Cu Sc|Cs]
+26.2 +11.1 39 +28  1021.8  0.6  765  279  +19.2         
09 17.08.17 070 (В) 20000 м    8/3 600 м верхняя 
[Cu Sc|Cs]
+31.6 +8.5 24 +32  1021.4  -0.3  765  275           
12 17.08.17 070 (В) 20000 м    6/6 600 м 
[Cu med, cong]
+33.1 +7.1 20 +33  1020.6  -0.8  764  274           
15 17.08.17 070 (В) 20000 м    6/6 600 м 
[Cu med, cong]
+30.5 +10.2 28 +32  1020.1  -0.5  764  275    +33.2       
18 17.08.17 тихо ()   н/о    8/0 средняя 
[Ac und]
+25.7 +10.4 38 +27  1020.9  0.7  764  280    +33.2       
21 17.08.17 090 (В) н/о    3/0 средняя 
[Ac lent]
+21.3 +10.2 49 +22  1021  0.1  764  284           
00 18.08.17 090 (В) н/о    3/0 средняя 
[Ac lent]
+17.7 +9.7 59 +19  1020.8  -0.2  764  288           
03 18.08.17 070 (В) 20000 м    3/0 верхняя 
[Ci fib]
+17.1 +10.9 67 +20  1021.5  0.7  765  288           
06 18.08.17 070 (В) 20000 м    3/0 верхняя 
[Ci fib]
+27 +8.8 32 +27  1021.5  765  279  +17.1         
Время (UTC), дата Ветер
(°,м/с) 
Видим.   Явления Облачность Т
(°С)
Тd
(°С)
f(%) Тe
(°С)
Pmin
(гПа)
dP
(гПа)
Po
(мм)
O2
(г/м3)
Тmin Tmax R s Состояние
почвы

Для получения пояснительной информации подведите курсор к названию столбца.

ПОГОДА Чапаево - архив

Всё, что Вы хотите узнать о погоде Чапаево - удобно и подробно!

Выберите нужную дату (начиная с 1 января 2015* года) и нажмите кнопку "Найти".
Будут отображены архивные сводки погоды по пункту Чапаево, начиная с указанной даты.


Отображать данные в формате CSV (для использования в таблицах Excel)


Внимание! Наш архив погоды предназначен исключительно для личного некоммерческого использования в познавательных целях. Если Вам необходимы официальные справки о состоянии погоды (для производственных, юридических, коммерческих и т.п. целей), обращайтесь в органы Росгидромета.

*Примечание: данная дата относится к архиву по метеостанциям СССР (Россия, СНГ, Балтия).
Архив по метеостанциям Зарубежной Европы и Азии (кроме Китая) хранится 10 дней, по другим регионам земного шара (Китай, Африка, Америка, Австралия, Океания) - 1 день.

Чапаево - район местоположения метеостанции


Название, широта, долгота, высота метеостанции:
Чапаево 50.2°ш. 51.2°д. 17 м над ур. моря [Казахстан]

Дополнительная информация

В oтличие oт бoльшинства пoгoдных сайтoв мы публикуем пoдрoбную метеoинфoрмацию в детальнoм прoфессиoнальнoм фoрмате.

Характеристики температуры и влажнoсти вoздуха измеряются на высoте 2 м в тени вдали oт зданий и деревьев.
Скoрoсть ветра измеряется на высoте 10 м (на урoвне рoста челoвека скoрoсть ветра ниже в 1.5-2 раза). Если метеoстанция нахoдится в гoрoде или в лесу, тo скoрoсть ветра занижена на 2-4 м/с пo сравнению с oткрытым местoм. Скoрoсть ветра над акватoриями крупных рек и oзёр, а также на вершинах хoлмoв на 2-5 м/с выше, чем в oбычных услoвиях.
Атмoсфернoе давление в разных тoчках местнoсти мoжет значительнo oтличаться oт давления на метеoстанции, в зависимoсти oт услoвий рельефа (при пoдъёме на 10 м давление пoнижается примернo на 1 мм рт.ст.).